Regional Weather Roundup
Issued by NWS

Home | Current Version | Previous Version | Text Only | Print | Product List | Glossary On
Versions: 1 2 3 4 5 6 7 8 9 10 11 12 13 14 15 16 17 18 19 20 21 22 23 24 25 26 27 28 29 30 31 32 33 34 35 36 37 38 39 40 41 42 43 44 45 46 47 48 49 50
000
ASUS43 KLMK 232202
RWRKY
KENTUCKY REGIONAL WEATHER ROUNDUP
NATIONAL WEATHER SERVICE LOUISVILLE KY
500 PM EST MON JAN 23 2017

NOTE "FAIR" INDICATES FEW OR NO CLOUDS BELOW 12,000 FEET
WITH NO SIGNIFICANT WEATHER AND/OR OBSTRUCTIONS TO VISIBILITY.

KYZ001>023-026-027-061>063-070>075-232300-
WESTERN AND SOUTH CENTRAL KENTUCKY

CITY           SKY/WX    TMP DP  RH WIND       PRES   REMARKS
PADUCAH        CLOUDY    45  35  68 N14       29.78S
HENDERSON      CLOUDY    43  34  70 NW15      29.76R
OWENSBORO      CLOUDY    43  37  79 NW15      29.74R
HOPKINSVILLE   CLOUDY    45  37  76 NW14G22   29.75R
BOWLING GREEN  CLOUDY    46  38  73 NW10      29.70R
GLASGOW        NOT AVBL
$$

KYZ024-025-028>034-038-045-046-053-232300-
NORTH CENTRAL KENTUCKY

CITY           SKY/WX    TMP DP  RH WIND       PRES   REMARKS
LOUISVILLE/SDF CLOUDY    47  41  80 NW12      29.64R
LOUISVILLE/LOU CLOUDY    47  41  80 NW13      29.64R
FORT KNOX      CLOUDY    44  41  90 NW10      29.64R FOG
$$

KYZ035>037-039>044-047>052-055>060-089>105-232300-
NORTHEAST KENTUCKY

CITY           SKY/WX    TMP DP  RH WIND       PRES   REMARKS
LEXINGTON      LGT RAIN  47  44  90 NW16G23   29.57R FOG
COVINGTON      CLOUDY    47  45  93 NW15      29.58R FOG
FRANKFORT      CLOUDY    47  43  86 NW13G21   29.58R FOG
$$

KYZ054-064>069-076>088-106>120-232300-
SOUTHEAST KENTUCKY

CITY           SKY/WX    TMP DP  RH WIND       PRES   REMARKS
JACKSON        LGT RAIN  47  45  93 NW9       29.48R FOG
LONDON         LGT RAIN  47  45  93 NW12G20   29.53R FOG
SOMERSET       CLOUDY    45  45 100 W10G17    29.59R FOG
MIDDLESBORO    HVY RAIN  49  47  93 NW12G18   29.51R
MONTICELLO     CLOUDY    47  45  93 NW14G21   29.61R
$$




USA.gov is the U.S. government's official web portal to all federal, state and local government web resources and services.